Weather History for Indianapolis, IN

Change the Weather History Date:

Tuesday, June 26, 2012

  Actual Average Record
Temperature  
Mean Temperature 71 °F 75 °F  
Max Temperature 83 °F 85 °F 102 °F (1954)
Min Temperature 59 °F 65 °F 49 °F (1979)
Degree Days  
Heating Degree Days 0 0  
Month to date heating degree days 15 13  
Since 1 June heating degree days 15 13  
Since 1 July heating degree days 4116 5375  
Cooling Degree Days 6 10  
Month to date cooling degree days 235 187  
Year to date cooling degree days 445 271  
Since 1 June cooling degree days 235 187  
Growing Degree Days 21 (Base 50)    
Moisture  
Dew Point 43 °F    
Average Humidity 40    
Maximum Humidity 55    
Minimum Humidity 24    
Precipitation  
Precipitation 0.00 in 0.14 in 3.09 in (1994)
Month to date precipitation 0.05 3.68  
Year to date precipitation 15.11 21.08  
Snow  
Snow 0.00 in 0.00 in 0.00 in ()
Month to date snowfall 0.0 0.0  
Since 1 June snowfall 0.0 0.0  
Since 1 July snowfall 9.8 25.9  
Snow Depth 0.00 in    
Sea Level Pressure  
Sea Level Pressure 29.99 in    
Wind  
Wind Speed 9 mph (East)    
Max Wind Speed 17 mph    
Max Gust Speed 23 mph    
Visibility 10 miles    
Events      
T = Trace of Precipitation, MM = Missing Value Source: NWS Daily Summary

Daily Weather History Graph

Daily Weather History Graph

Search for Another Location

Airport:

Trip Planner

Search our weather history database for the weather conditions in past years. The results will help you decide how hot, cold, wet, or windy it might be!

Date:

Astronomy

Jun. 26, 2012 Rise Set
Actual Time 6:19 AM EDT 9:17 PM EDT
Civil Twilight 5:46 AM EDT 9:49 PM EDT
Nautical Twilight 5:05 AM EDT 10:31 PM EDT
Astronomical Twilight 4:17 AM EDT 11:18 PM EDT
Moon 1:33 PM EDT (6/26) 12:46 AM EDT (6/26)
Length of Visible Light 16h 03m
Length of Day
14h 58m
Waxing Crescent, 45% of the Moon is Illuminated
Jun 26
Waxing Crescent
Jun 26
First Quarter
Jul 3
Full
Jul 10
Last Quarter
Jul 19
New

Hourly Weather History & Observations

Time (EDT) Temp. Dew Point Humidity Pressure Visibility Wind Dir Wind Speed Gust Speed Precip Events Conditions
12:54 AM 69.1 °F 45.0 °F 42% 29.98 in 10.0 mi NE 9.2 mph - N/A   Clear
2:54 AM 66.0 °F 44.1 °F 45% 29.99 in 10.0 mi East 12.7 mph - N/A   Clear
3:54 AM 64.0 °F 44.1 °F 48% 29.99 in 10.0 mi East 10.4 mph - N/A   Clear
4:54 AM 62.1 °F 44.1 °F 52% 30.00 in 10.0 mi East 9.2 mph - N/A   Clear
5:54 AM 60.1 °F 44.1 °F 55% 30.00 in 10.0 mi East 4.6 mph - N/A   Clear
6:54 AM 60.1 °F 45.0 °F 57% 30.02 in 10.0 mi East 4.6 mph - N/A   Clear
7:54 AM 63.0 °F 44.1 °F 50% 30.02 in 10.0 mi East 9.2 mph - N/A   Clear
8:54 AM 66.9 °F 44.1 °F 44% 30.05 in 10.0 mi ESE 12.7 mph - N/A   Clear
9:54 AM 70.0 °F 44.1 °F 39% 30.05 in 10.0 mi East 12.7 mph - N/A   Clear
10:54 AM 73.0 °F 43.0 °F 34% 30.04 in 10.0 mi ENE 15.0 mph 21.9 mph N/A   Clear
11:54 AM 75.0 °F 41.0 °F 29% 30.03 in 10.0 mi ENE 12.7 mph - N/A   Clear
12:54 PM 77.0 °F 41.0 °F 28% 30.03 in 10.0 mi NE 11.5 mph 19.6 mph N/A   Clear
1:54 PM 78.8 °F 41.0 °F 26% 30.04 in 10.0 mi East 5.8 mph 16.1 mph N/A   Clear
2:54 PM 79.0 °F 41.0 °F 26% 30.00 in 10.0 mi Variable 5.8 mph - N/A   Partly Cloudy
3:54 PM 80.1 °F 41.0 °F 25% 29.98 in 10.0 mi East 6.9 mph - N/A   Partly Cloudy
4:54 PM 81.0 °F 42.1 °F 25% 29.96 in 10.0 mi Variable 6.9 mph - N/A   Partly Cloudy
5:54 PM 82.0 °F 42.1 °F 24% 29.95 in 10.0 mi NNE 9.2 mph 16.1 mph N/A   Partly Cloudy
6:54 PM 81.0 °F 42.1 °F 25% 29.94 in 10.0 mi ENE 5.8 mph - N/A   Partly Cloudy
7:54 PM 80.1 °F 42.1 °F 26% 29.94 in 10.0 mi East 10.4 mph - N/A   Partly Cloudy
8:54 PM 77.0 °F 43.0 °F 30% 29.93 in 10.0 mi East 9.2 mph - N/A   Partly Cloudy
9:54 PM 75.0 °F 44.1 °F 33% 29.94 in 10.0 mi East 6.9 mph - N/A   Partly Cloudy
10:54 PM 72.0 °F 45.0 °F 38% 29.95 in 10.0 mi East 5.8 mph - N/A   Clear
11:54 PM 72.0 °F 45.0 °F 38% 29.96 in 10.0 mi East 4.6 mph - N/A   Clear